Погода в Занадворовке

Россия / Приморский край     43°18′00″N   131°36′30″E
темп.,
°C
ветер,
м/с
пор.,
м/с
влажн.,
%
обл.,
%
осадки,
мм/ч
давл.,
гПа
погр.,
м
22 января, сб
сб2201:00−14с117974 0.0 103138
04:00−15ссз21816 0.0 103137
07:00−15ссз21845 0.0 103032
10:00−13с12705 0.0 103177
13:00−8св134798 0.0 1029405
16:00−7св2247100 0.0 1028412
19:00−10ссв226792 0.0 102861
22:00−11с2265100 0.0 1028110
23 января, вс
вс2301:00−11с2366100 0.0 102892
04:00−12с2372100 0.0 102778
07:00−12с237696 0.0 102785
10:00−11с2469100 0.0 1027202
13:00−7ссв374338 0.0 1027673
16:00−6ссв48415 0.0 1026736
19:00−10ссв22741 0.0 102753
22:00−12с22822 0.0 102853
24 января, пн
пн2401:00−13ссз23824 0.0 102849
04:00−13ссз23782 0.0 102844
07:00−14ссз22761 0.0 102840
10:00−12с12616 0.0 102867
13:00−6св23425 0.0 1027518
16:00−5св24426 0.0 1025506
19:00−9ссв1168100 0.0 102645
22:00−10с1171100 0.0 102533
25 января, вт
вт2501:00−10ссз1268100 0.0 102537
04:00−10ссз1172100 0.0 102431
07:00−10с1175100 0.0 102331
10:00−9с1265100 0.0 102275
13:00−5св114493 0.0 1021334
16:00−4всв1144100 0.0 1020403
19:00−7ссв116995 0.0 102134
22:00−9с1276100 0.0 102143
26 января, ср
ср2601:00−10с217654 0.0 102140
04:00−11с11817 0.0 102132
07:00−12ссз238310 0.0 102250
10:00−10ссз247668 0.0 1023143
13:00−6с4757100 0.0 1022909
16:00−5с485589 0.0 10221290
19:00−8с39715 0.0 1024646
22:00−9ссз39655 0.0 1026514